Location: Almena Post Office
(39.8928°N, 99.7066°W)
Time: 18:21:28
(UTC+00:00)

Cosmos 1814 Rocket - Pass Details

Date: 27 February 2020
Orbit: 744 x 788 km, 74.1° (Epoch: 03 April)

Event Time Altitude Azimuth Distance (km) Brightness Sun altitude
Rises 12:38:01 0° 338° (NNW) 3,234 7.0 -8.0°
Reaches altitude 10° 12:40:23 10° 337° (NNW) 2,311 6.2 -7.5°
Maximum altitude 12:45:37 72° 254° (WSW) 816 4.0 -6.5°
Drops below altitude 10° 12:50:52 10° 171° (S) 2,323 6.7 -5.5°
Sets 12:53:15 0° 169° (S) 3,252 7.5 -5.1°
